This is the latest recevied weather packets stored in our database for station/object K0FJ-1. If no packets are shown the sender has not sent any weather packets the latest 10 day(s).
| Time | Temp. | Humidity | Pressure | Rain* | Wind** | Luminosity | Snow |
|---|---|---|---|---|---|---|---|
| 1787786703 | 30.56° C | 52% | 1020.6 hPa | 0 mm | - | - | - |
| 1787786403 | 30.56° C | 52% | 1020.7 hPa | 0 mm | - | - | - |
| 1787786103 | 31.11° C | 51% | 1020.6 hPa | 0 mm | - | - | - |
| 1787785803 | 31.11° C | 50% | 1020.7 hPa | 0 mm | - | - | - |
| 1787785503 | 31.67° C | 49% | 1020.6 hPa | 0 mm | - | - | - |
| 1787785203 | 32.22° C | 48% | 1020.7 hPa | 0 mm | - | - | - |
| 1787784903 | 32.22° C | 48% | 1020.6 hPa | 0 mm | - | - | - |
| 1787784603 | 32.78° C | 47% | 1020.5 hPa | 0 mm | - | - | - |
| 1787784303 | 33.33° C | 46% | 1020.5 hPa | 0 mm | - | - | - |
| 1787784003 | 33.89° C | 45% | 1020.4 hPa | 0 mm | - | - | - |
| 1787783703 | 33.89° C | 46% | 1020.5 hPa | 0 mm | - | - | - |
| 1787783403 | 33.89° C | 45% | 1020.5 hPa | 0 mm | - | - | - |
| 1787783103 | 33.89° C | 46% | 1020.5 hPa | 0 mm | - | - | - |
| 1787782803 | 33.33° C | 45% | 1020.7 hPa | 0 mm | - | - | - |
| 1787782503 | 32.78° C | 47% | 1020.6 hPa | 0 mm | - | - | - |
| 1787782203 | 32.78° C | 47% | 1020.7 hPa | 0 mm | - | - | - |
| 1787781903 | 32.22° C | 44% | 1020.7 hPa | 0 mm | - | - | - |
| 1787781603 | 32.78° C | 44% | 1020.9 hPa | 0 mm | - | - | - |
| 1787781303 | 32.78° C | 43% | 1021 hPa | 0 mm | - | - | - |
| 1787781003 | 32.78° C | 48% | 1021 hPa | 0 mm | - | - | - |
| 1787780703 | 32.78° C | 47% | 1021 hPa | 0 mm | - | - | - |
| 1787780403 | 32.78° C | 46% | 1021.1 hPa | 0 mm | - | - | - |
| 1787780103 | 32.78° C | 44% | 1021.2 hPa | 0 mm | - | - | - |
| 1787779803 | 33.33° C | 44% | 1021.2 hPa | 0 mm | - | - | - |
| 1787779503 | 32.78° C | 47% | 1021.3 hPa | 0 mm | - | - | - |
* Rain latest hour (hover to see other rain measurements)
** Current wind speed in m/s (hover to see current wind gust speed)